Tracking 28799 objects as of 18-Apr-2024
HD Live streaming from Space Station
objects crossing your sky now

COSMOS 2251 DEB

Track COSMOS 2251 DEB now!
10-day predictions


NORAD ID: 34037
Int'l Code: 1993-036HY
Perigee: 752.3 km
Apogee: 837.3 km
Inclination: 74.1 °
Period: 100.6 minutes
Semi major axis: 7165 km
RCS: 0.0548 m2 (small)
Launch date: June 16, 1993
Source: Commonwealth of Independent States (former USSR) (CIS)
Launch site: PLESETSK MISSILE AND SPACE COMPLEX (PKMTR)

Note: This is SATELLITE DEBRIS
Your satellite tracking list
Your tracking list is empty




NASA's NSSDC Master Catalog

Two Line Element Set (TLE):
1 34037U 93036HY  24108.25009812  .00005497  00000-0  20493-2 0  9995
2 34037  74.0524  74.1187 0059303 272.8947  86.5418 14.31206450790574
Source of the keplerian elements: AFSPC